Time,TemperatureF,DewpointF,PressureIn,WindDirection,WindDirectionDegrees,WindSpeedMPH,WindSpeedGustMPH,Humidity,HourlyPrecipIn,Conditions,Clouds,dailyrainin,SoftwareType,DateUTC
2013-06-19 00:06:00,71.7,71.0,29.87,WSW,247,0.0,1.0,97,0.00,,,0.00,weatherlink.com 1.10,2013-06-19 04:06:00,
2013-06-19 00:21:00,71.7,71.0,29.87,WSW,247,0.0,1.0,97,0.00,,,0.00,weatherlink.com 1.10,2013-06-19 04:21:00,
2013-06-19 00:36:00,71.6,71.0,29.87,WSW,247,0.0,0.0,97,0.00,,,0.00,weatherlink.com 1.10,2013-06-19 04:36:00,
2013-06-19 00:51:00,71.6,71.0,29.87,WSW,247,0.0,1.0,97,0.00,,,0.00,weatherlink.com 1.10,2013-06-19 04:51:00,
2013-06-19 01:06:00,71.3,70.0,29.87,East,92,0.0,3.0,97,0.00,,,0.00,weatherlink.com 1.10,2013-06-19 05:06:00,
2013-06-19 01:21:00,71.2,70.0,29.88,East,91,0.0,1.0,97,0.00,,,0.00,weatherlink.com 1.10,2013-06-19 05:21:00,
2013-06-19 01:36:00,71.1,70.0,29.87,East,91,0.0,0.0,97,0.00,,,0.00,weatherlink.com 1.10,2013-06-19 05:36:00,
2013-06-19 01:51:00,71.0,70.0,29.87,East,91,0.0,0.0,96,0.00,,,0.00,weatherlink.com 1.10,2013-06-19 05:51:00,
2013-06-19 02:06:00,70.7,70.0,29.86,North,5,0.0,1.0,96,0.00,,,0.00,weatherlink.com 1.10,2013-06-19 06:06:00,
2013-06-19 02:21:00,70.6,70.0,29.86,North,5,0.0,1.0,96,0.00,,,0.00,weatherlink.com 1.10,2013-06-19 06:21:00,
2013-06-19 02:36:00,70.4,70.0,29.87,North,5,0.0,1.0,97,0.00,,,0.00,weatherlink.com 1.10,2013-06-19 06:36:00,
2013-06-19 02:51:00,70.4,70.0,29.87,North,5,0.0,0.0,97,0.00,,,0.00,weatherlink.com 1.10,2013-06-19 06:51:00,
2013-06-19 03:06:00,70.3,69.0,29.87,North,5,0.0,0.0,97,0.00,,,0.00,weatherlink.com 1.10,2013-06-19 07:06:00,
2013-06-19 03:21:00,70.3,69.0,29.87,North,5,0.0,0.0,97,0.00,,,0.00,weatherlink.com 1.10,2013-06-19 07:21:00,
2013-06-19 03:36:00,70.2,69.0,29.87,North,5,0.0,0.0,97,0.00,,,0.00,weatherlink.com 1.10,2013-06-19 07:36:00,
2013-06-19 03:51:00,70.2,69.0,29.88,North,5,0.0,0.0,97,0.00,,,0.00,weatherlink.com 1.10,2013-06-19 07:51:00,
2013-06-19 04:06:00,70.1,69.0,29.88,North,5,0.0,0.0,97,0.00,,,0.00,weatherlink.com 1.10,2013-06-19 08:06:00,
2013-06-19 04:21:00,70.1,69.0,29.87,North,5,0.0,0.0,97,0.00,,,0.00,weatherlink.com 1.10,2013-06-19 08:21:00,
2013-06-19 04:36:00,69.9,69.0,29.88,North,5,0.0,0.0,97,0.00,,,0.00,weatherlink.com 1.10,2013-06-19 08:36:00,
2013-06-19 04:51:00,69.7,69.0,29.88,North,5,0.0,0.0,97,0.00,,,0.00,weatherlink.com 1.10,2013-06-19 08:51:00,
2013-06-19 05:06:00,69.6,69.0,29.89,North,5,0.0,0.0,97,0.00,,,0.00,weatherlink.com 1.10,2013-06-19 09:06:00,
2013-06-19 05:21:00,69.5,69.0,29.89,North,5,0.0,0.0,97,0.00,,,0.00,weatherlink.com 1.10,2013-06-19 09:21:00,
2013-06-19 05:36:00,69.3,69.0,29.89,North,5,0.0,0.0,97,0.00,,,0.00,weatherlink.com 1.10,2013-06-19 09:36:00,
2013-06-19 05:51:00,69.3,69.0,29.89,North,5,0.0,0.0,97,0.00,,,0.00,weatherlink.com 1.10,2013-06-19 09:51:00,
2013-06-19 06:06:00,69.2,68.0,29.90,North,5,0.0,0.0,97,0.00,,,0.00,weatherlink.com 1.10,2013-06-19 10:06:00,
2013-06-19 06:21:00,69.1,68.0,29.91,North,5,0.0,0.0,97,0.00,,,0.00,weatherlink.com 1.10,2013-06-19 10:21:00,
2013-06-19 06:36:00,69.1,68.0,29.92,North,5,0.0,0.0,97,0.00,,,0.00,weatherlink.com 1.10,2013-06-19 10:36:00,
2013-06-19 06:51:00,69.2,69.0,29.92,North,5,0.0,0.0,98,0.00,,,0.00,weatherlink.com 1.10,2013-06-19 10:51:00,
2013-06-19 07:06:00,69.3,69.0,29.93,North,5,0.0,0.0,97,0.00,,,0.00,weatherlink.com 1.10,2013-06-19 11:06:00,
2013-06-19 07:21:00,69.4,69.0,29.93,North,5,0.0,0.0,97,0.00,,,0.00,weatherlink.com 1.10,2013-06-19 11:21:00,
2013-06-19 07:36:00,69.5,69.0,29.93,North,5,0.0,0.0,97,0.00,,,0.00,weatherlink.com 1.10,2013-06-19 11:36:00,
2013-06-19 07:51:00,69.7,69.0,29.94,North,5,0.0,1.0,97,0.00,,,0.00,weatherlink.com 1.10,2013-06-19 11:51:00,
2013-06-19 08:06:00,70.0,69.0,29.95,East,94,1.0,2.0,96,0.00,,,0.00,weatherlink.com 1.10,2013-06-19 12:06:00,
2013-06-19 08:21:00,70.7,70.0,29.95,North,5,0.0,1.0,96,0.00,,,0.00,weatherlink.com 1.10,2013-06-19 12:21:00,
2013-06-19 08:36:00,71.2,69.0,29.96,North,5,0.0,3.0,94,0.00,,,0.00,weatherlink.com 1.10,2013-06-19 12:36:00,
2013-06-19 08:51:00,72.0,70.0,29.96,North,5,1.0,1.0,92,0.00,,,0.00,weatherlink.com 1.10,2013-06-19 12:51:00,
2013-06-19 09:06:00,72.3,69.0,29.97,NNW,340,0.0,1.0,90,0.00,,,0.00,weatherlink.com 1.10,2013-06-19 13:06:00,
2013-06-19 09:21:00,72.5,69.0,29.96,NNE,24,1.0,1.0,89,0.00,,,0.00,weatherlink.com 1.10,2013-06-19 13:21:00,
2013-06-19 09:36:00,72.7,69.0,29.96,ENE,69,1.0,2.0,87,0.00,,,0.00,weatherlink.com 1.10,2013-06-19 13:36:00,
2013-06-19 09:51:00,73.2,70.0,29.97,South,182,0.0,2.0,88,0.00,,,0.00,weatherlink.com 1.10,2013-06-19 13:51:00,
2013-06-19 10:06:00,74.0,69.0,29.97,East,100,0.0,6.0,83,0.00,,,0.00,weatherlink.com 1.10,2013-06-19 14:06:00,
2013-06-19 10:21:00,74.4,69.0,29.98,East,100,1.0,2.0,83,0.00,,,0.00,weatherlink.com 1.10,2013-06-19 14:21:00,
2013-06-19 10:37:00,74.8,69.0,29.98,North,10,0.0,1.0,82,0.00,,,0.00,weatherlink.com 1.10,2013-06-19 14:37:00,
2013-06-19 10:52:00,75.1,68.0,29.98,WSW,243,0.0,3.0,79,0.00,,,0.00,weatherlink.com 1.10,2013-06-19 14:52:00,
2013-06-19 11:07:00,75.5,69.0,29.98,ENE,61,0.0,3.0,80,0.00,,,0.00,weatherlink.com 1.10,2013-06-19 15:07:00,
2013-06-19 11:22:00,75.7,68.0,29.98,NE,34,1.0,4.0,77,0.00,,,0.00,weatherlink.com 1.10,2013-06-19 15:22:00,
2013-06-19 11:37:00,76.0,69.0,29.98,East,88,0.0,2.0,78,0.00,,,0.00,weatherlink.com 1.10,2013-06-19 15:37:00,
2013-06-19 11:52:00,76.9,67.0,29.98,ENE,70,1.0,5.0,71,0.00,,,0.00,weatherlink.com 1.10,2013-06-19 15:52:00,
2013-06-19 12:07:00,77.9,68.0,29.99,East,80,2.0,2.0,71,0.00,,,0.00,weatherlink.com 1.10,2013-06-19 16:07:00,
2013-06-19 12:22:00,79.2,67.0,29.99,NNE,25,0.0,4.0,67,0.00,,,0.00,weatherlink.com 1.10,2013-06-19 16:22:00,
2013-06-19 12:37:00,80.3,66.0,29.99,East,90,0.0,2.0,62,0.00,,,0.00,weatherlink.com 1.10,2013-06-19 16:37:00,
2013-06-19 12:52:00,80.9,68.0,29.99,East,88,3.0,6.0,65,0.00,,,0.00,weatherlink.com 1.10,2013-06-19 16:52:00,
2013-06-19 13:07:00,81.5,65.0,29.99,ESE,107,0.0,4.0,58,0.00,,,0.00,weatherlink.com 1.10,2013-06-19 17:07:00,
2013-06-19 13:22:00,82.0,66.0,29.99,ENE,76,0.0,3.0,59,0.00,,,0.00,weatherlink.com 1.10,2013-06-19 17:22:00,
2013-06-19 13:37:00,82.3,67.0,29.99,ENE,67,2.0,3.0,61,0.00,,,0.00,weatherlink.com 1.10,2013-06-19 17:37:00,
2013-06-19 13:52:00,82.3,65.0,29.98,East,87,0.0,3.0,56,0.00,,,0.00,weatherlink.com 1.10,2013-06-19 17:52:00,
2013-06-19 14:07:00,82.7,67.0,29.98,WNW,298,0.0,4.0,60,0.00,,,0.00,weatherlink.com 1.10,2013-06-19 18:07:00,
2013-06-19 14:22:00,83.3,69.0,29.98,SSE,167,0.0,2.0,63,0.00,,,0.00,weatherlink.com 1.10,2013-06-19 18:22:00,
2013-06-19 14:37:00,84.3,67.0,29.98,East,98,0.0,2.0,56,0.00,,,0.00,weatherlink.com 1.10,2013-06-19 18:37:00,
2013-06-19 14:52:00,83.9,66.0,29.98,East,81,3.0,3.0,56,0.00,,,0.00,weatherlink.com 1.10,2013-06-19 18:52:00,
2013-06-19 15:07:00,83.4,67.0,29.98,East,100,2.0,3.0,57,0.00,,,0.00,weatherlink.com 1.10,2013-06-19 19:07:00,
2013-06-19 15:22:00,84.1,66.0,29.98,North,351,1.0,3.0,55,0.00,,,0.00,weatherlink.com 1.10,2013-06-19 19:22:00,
2013-06-19 15:37:00,85.0,70.0,29.98,NE,34,0.0,2.0,62,0.00,,,0.00,weatherlink.com 1.10,2013-06-19 19:37:00,
2013-06-19 15:52:00,84.8,67.0,29.97,East,90,0.0,2.0,55,0.00,,,0.00,weatherlink.com 1.10,2013-06-19 19:52:00,
2013-06-19 16:07:00,84.3,67.0,29.97,East,82,1.0,3.0,57,0.00,,,0.00,weatherlink.com 1.10,2013-06-19 20:07:00,
2013-06-19 16:22:00,83.9,67.0,29.97,ENE,64,1.0,2.0,58,0.00,,,0.00,weatherlink.com 1.10,2013-06-19 20:22:00,
2013-06-19 16:37:00,83.6,68.0,29.97,ENE,65,0.0,1.0,60,0.00,,,0.00,weatherlink.com 1.10,2013-06-19 20:37:00,
2013-06-19 16:52:00,83.4,70.0,29.97,ENE,65,0.0,2.0,64,0.00,,,0.00,weatherlink.com 1.10,2013-06-19 20:52:00,
2013-06-19 17:07:00,83.8,69.0,29.97,ENE,59,0.0,2.0,61,0.00,,,0.00,weatherlink.com 1.10,2013-06-19 21:07:00,
2013-06-19 17:22:00,84.2,69.0,29.97,ENE,71,1.0,3.0,60,0.00,,,0.00,weatherlink.com 1.10,2013-06-19 21:22:00,
2013-06-19 17:37:00,84.3,69.0,29.97,ENE,71,0.0,3.0,60,0.00,,,0.00,weatherlink.com 1.10,2013-06-19 21:37:00,
2013-06-19 17:52:00,82.9,68.0,29.98,East,96,0.0,2.0,61,0.00,,,0.00,weatherlink.com 1.10,2013-06-19 21:52:00,
2013-06-19 18:07:00,81.7,69.0,29.98,East,87,0.0,1.0,66,0.00,,,0.00,weatherlink.com 1.10,2013-06-19 22:07:00,
2013-06-19 18:22:00,80.8,70.0,29.98,East,87,0.0,1.0,69,0.00,,,0.00,weatherlink.com 1.10,2013-06-19 22:22:00,
2013-06-19 18:37:00,79.8,70.0,29.98,East,87,0.0,0.0,72,0.00,,,0.00,weatherlink.com 1.10,2013-06-19 22:37:00,
2013-06-19 18:52:00,79.2,71.0,29.99,East,87,0.0,0.0,75,0.00,,,0.00,weatherlink.com 1.10,2013-06-19 22:52:00,
2013-06-19 19:07:00,79.6,71.0,29.99,East,87,0.0,0.0,74,0.00,,,0.00,weatherlink.com 1.10,2013-06-19 23:07:00,
2013-06-19 19:22:00,79.5,70.0,30.00,East,87,0.0,1.0,72,0.00,,,0.00,weatherlink.com 1.10,2013-06-19 23:22:00,
2013-06-19 19:37:00,78.5,70.0,30.00,East,87,0.0,0.0,76,0.00,,,0.00,weatherlink.com 1.10,2013-06-19 23:37:00,
2013-06-19 19:52:00,77.5,69.0,30.00,East,87,0.0,0.0,76,0.00,,,0.00,weatherlink.com 1.10,2013-06-19 23:52:00,
2013-06-19 20:07:00,76.3,69.0,30.01,East,87,0.0,0.0,79,0.00,,,0.00,weatherlink.com 1.10,2013-06-20 00:07:00,
2013-06-19 20:22:00,75.2,69.0,30.01,East,87,0.0,0.0,80,0.00,,,0.00,weatherlink.com 1.10,2013-06-20 00:22:00,
2013-06-19 20:37:00,74.0,68.0,30.02,East,87,0.0,0.0,82,0.00,,,0.00,weatherlink.com 1.10,2013-06-20 00:37:00,
2013-06-19 20:52:00,73.0,68.0,30.02,East,87,0.0,0.0,84,0.00,,,0.00,weatherlink.com 1.10,2013-06-20 00:52:00,
2013-06-19 21:08:00,72.1,68.0,30.02,East,87,0.0,0.0,87,0.00,,,0.00,weatherlink.com 1.10,2013-06-20 01:08:00,
2013-06-19 21:23:00,71.5,68.0,30.02,East,87,0.0,0.0,88,0.00,,,0.00,weatherlink.com 1.10,2013-06-20 01:23:00,
2013-06-19 21:38:00,70.9,68.0,30.03,East,87,0.0,0.0,89,0.00,,,0.00,weatherlink.com 1.10,2013-06-20 01:38:00,
2013-06-19 21:53:00,70.3,67.0,30.04,East,87,0.0,0.0,90,0.00,,,0.00,weatherlink.com 1.10,2013-06-20 01:53:00,
2013-06-19 22:08:00,69.9,68.0,30.05,East,87,0.0,0.0,92,0.00,,,0.00,weatherlink.com 1.10,2013-06-20 02:08:00,
2013-06-19 22:23:00,69.7,67.0,30.05,East,87,0.0,0.0,92,0.00,,,0.00,weatherlink.com 1.10,2013-06-20 02:23:00,
2013-06-19 22:38:00,69.5,68.0,30.06,East,87,0.0,0.0,93,0.00,,,0.00,weatherlink.com 1.10,2013-06-20 02:38:00,
2013-06-19 22:53:00,69.4,67.0,30.06,East,87,0.0,0.0,92,0.00,,,0.00,weatherlink.com 1.10,2013-06-20 02:53:00,
2013-06-19 23:08:00,69.2,67.0,30.06,East,87,0.0,0.0,93,0.00,,,0.00,weatherlink.com 1.10,2013-06-20 03:08:00,
2013-06-19 23:23:00,68.9,67.0,30.06,East,87,0.0,0.0,93,0.00,,,0.00,weatherlink.com 1.10,2013-06-20 03:23:00,
2013-06-19 23:38:00,68.6,67.0,30.07,East,87,0.0,0.0,93,0.00,,,0.00,weatherlink.com 1.10,2013-06-20 03:38:00,
2013-06-19 23:53:00,68.2,67.0,30.08,East,87,0.0,0.0,94,0.00,,,0.00,weatherlink.com 1.10,2013-06-20 03:53:00,